User: anonymous   Login
Location: Acton
(51.4942°N, 0.2232°W)
Time: 11:50:33
(UTC+00:00)
Language:

Cosmos 1833 Rocket - Orbit

View from above orbital plane
View from above orbital plane
View from above satellite
View from above satellite

Ground track
Ground track

The orbit data is extracted from the following two-line orbital elements,

1 17590U 87027B   20329.88753355 -.00000046 +00000-0 +85311-6 0  9991
2 17590 071.0047 023.5432 0005846 211.6129 148.4644 14.16793404741885
Epoch (UTC): 24 November 2020 21:18:02
Eccentricity: 0.0005846
inclination: 71.0047°
perigee height: 832 km
apogee height: 840 km
right ascension of ascending node: 23.5432°
argument of perigee: 211.6129°
revolutions per day: 14.16793404
mean anomaly at epoch: 148.4644°
orbit number at epoch: 74188

The dashed part of the orbit path shows where the satellite is in the earth's shadow,  

DLR